This demonstration page uses our WeatherBlox Daily Observations layout. Learn more.

Left ArrowRight Arrow

Hourly Observations for September 6, 2015

Temp ( °F °C ) Dew Point ( °F °C ) Humidity (%) Winds ( mph kmh ) Pressure ( in mb ) Visibility ( mi km ) Precip ( " mm )
12:52 am 00:52 Mostly Cloudy 80 26.7 71 21.7 74 74 SSE 15 24 29.85 1011 10 16 0.00 0.00
1:52 am 01:52 Mostly Cloudy 79 26.1 71 21.7 77 77 S 13 20 29.85 1011 10 16 0.00 0.00
2:52 am 02:52 Mostly Cloudy 78 25.6 71 21.7 79 79 S 14 22 29.85 1011 10 16 0.00 0.00
3:52 am 03:52 Mostly Cloudy 78 25.6 71 21.7 79 79 SSE 17 28 29.84 1011 10 16 0.00 0.00
4:52 am 04:52 Mostly Cloudy 77 25 71 21.7 82 82 SSE 16 26 29.84 1011 10 16 0.00 0.00
5:52 am 05:52 Mostly Cloudy 77 25 71 21.7 82 82 SSE 17 28 29.84 1011 10 16 0.00 0.00
6:52 am 06:52 Mostly Cloudy 76 24.4 71 21.7 85 85 SSE 18 30 29.84 1010 10 16 0.00 0.00
7:52 am 07:52 Partly Cloudy 77 25 71 21.7 82 82 SSE 16 26 29.84 1011 10 16 0.00 0.00
8:52 am 08:52 Partly Cloudy 81 27.2 71 21.7 72 72 S 14 22 29.83 1010 10 16 0.00 0.00
9:52 am 09:52 Mostly Cloudy 84 28.9 71 21.7 65 65 S 17 28 29.82 1010 10 16 0.00 0.00
10:52 am 10:52 Mostly Cloudy 89 31.7 72 22.2 57 57 S 17 28 29.82 1010 10 16 0.00 0.00
11:52 am 11:52 Mostly Cloudy 90 32.2 72 22.2 56 56 S 18 30 29.82 1010 10 16 0.00 0.00
12:52 pm 12:52 Mostly Cloudy 91 32.8 73 22.8 56 56 SSW 14 22 29.82 1010 10 16 0.00 0.00
1:52 pm 13:52 Mostly Cloudy 94 34.4 73 22.8 51 51 S 13 20 29.80 1009 10 16 0.00 0.00
2:52 pm 14:52 Mostly Cloudy 95 35 72 22.2 47 47 S 9 15 29.78 1009 10 16 0.00 0.00
3:52 pm 15:52 Partly Cloudy 97 36.1 71 21.7 43 43 SSW 16 26 29.78 1008 10 16 0.00 0.00
4:52 pm 16:52 Mostly Cloudy 96 35.6 72 22.2 46 46 SSW 9 15 29.78 1009 10 16 0.00 0.00
5:52 pm 17:52 Mostly Cloudy 95 35 73 22.8 49 49 S 8 13 29.78 1008 10 16 0.00 0.00
6:52 pm 18:52 Mostly Cloudy 92 33.3 77 25 62 62 Calm 29.77 1008 10 16 0.00 0.00
7:52 pm 19:52 Cloudy with Light Rain 83 28.3 76 24.4 79 79 NNW 20 31 29.80 1009 9 14 0.01 0.25
8:52 pm 20:52 Mostly Cloudy 81 27.2 74 23.3 79 79 SW 7 11 29.85 1011 10 16 0.00 0.03
9:52 pm 21:52 Mostly Cloudy 78 25.6 74 23.3 87 87 WNW 7 11 29.90 1013 10 16 0.00 0.00
9:57 pm 21:57 Mostly Cloudy with Thunderstorms 79 26.1 74 23.3 85 85 WNW 8 13 29.85 1011 10 16 0.00 0.00
10:52 pm 22:52 Cloudy with Thunderstorms 79 26.1 72 22.2 79 79 WSW 7 11 29.91 1013 10 16 0.00 0.00
11:36 pm 23:36 Cloudy with Thunderstorms 79 26 70 21 74 74 SSW 8 13 29.91 1013 10 16 0.00 0.00
11:52 pm 23:52 Cloudy with Thunderstorms 79 26.1 69 20.6 72 72 SSW 7 11 29.93 1013 10 16 0.00 0.00

Powered by AerisWeather